Location: ??????
(38.1303°N, 24.0039°E)
Time: 19:30:05
(UTC+00:00)

DELTA 2 R/B (1) - Pass Details

Date: 21 October 2021
Orbit: 790 x 802 km, 39.6° (Epoch: 01 December)

Event Time Altitude Azimuth Distance (km) Brightness Sun altitude
Exits shadow 03:20:04 16° 229° (SW) 1,975 5.2 -16.1°
Maximum altitude 03:20:49 16° 219° (SW) 1,952 5.3 -16.0°
Drops below altitude 10° 03:24:05 10° 182° (S) 2,339 6.0 -15.3°
Sets 03:27:29 0° 161° (SSE) 3,265 7.0 -14.7°
